Flag for Cote d'Ivoire (Ivory Coast) Weather past 2 weeks in Abidjan, Cote d'Ivoire (Ivory Coast)

Now
81 °F

Scattered clouds.


Feels Like: 85 °F
Forecast: 73 / 83 °F
Wind: 13 mph from Southwest

Location: Abidjan Airport

Current Time: Aug 30, 2015 at 12:06:17 PM

Latest Report: Aug 30, 2015 at 11:30 AM


Visibility: N/A

Pressure: 30.07 "Hg

Humidity: 74%

Dew point: 72 °F

Location of AbidjanLocation

Historic Weather in Abidjan — Graph

°F

Abidjan temperature yesterday

Maximum temperature yesterday: 82 °F (at 11:00 AM)
Minimum temperature yesterday: 73 °F (at 10:30 PM)
Average temperature yesterday: 77 °F

Past Weeks' High & Low Weather Summary

 TemperatureHumidityPressure
High82 °F (Aug 22, 1:30 PM)100% (Aug 15, 11:00 PM)30.07 "Hg (Aug 15, 11:00 PM)
Low73 °F (Aug 15, 11:00 PM)70% (Aug 23, 1:00 PM)29.83 "Hg (Aug 27, 4:00 PM)
Average77 °F89%29.94 "Hg
* Reported Aug 15 11:00 AM — Aug 30 11:00 AM, Abidjan, Weather by CustomWeather, © 2015

Note: Actual official high and low records may vary slightly from our data, if they occured in-between our weather recording intervals... More about our weather records

Advertising

Abidjan weather history for previous 24 hours

 ConditionsComfort  
Time TempWeatherWind HumidityBarometerVisibility
11:00 AM
Sun, Aug 30
81 °FScattered clouds.13 mph74%30.07 "HgN/A
10:30 AM81 °FScattered clouds.12 mph74%30.07 "HgN/A
10:00 AM79 °FScattered clouds.10 mph84%30.07 "HgN/A
9:30 AM79 °FScattered clouds.10 mph84%30.07 "Hg5 mi
9:00 AM77 °FScattered clouds.10 mph89%30.07 "Hg5 mi
8:30 AM77 °FScattered clouds.8 mph89%30.04 "Hg4 mi
8:00 AM75 °FPartly sunny.8 mph89%30.04 "Hg4 mi
7:30 AM73 °FPartly sunny.7 mph94%30.04 "Hg4 mi
7:00 AM73 °FPartly sunny.6 mph94%30.01 "Hg4 mi
6:30 AM73 °FPassing clouds.6 mph94%30.01 "Hg5 mi
6:00 AM73 °FPassing clouds.6 mph94%30.01 "HgN/A
5:30 AM73 °FPassing clouds.6 mph94%29.98 "HgN/A
5:00 AM73 °FPassing clouds.7 mph94%29.98 "HgN/A
4:30 AM73 °FPassing clouds.7 mph94%29.98 "HgN/A
4:00 AM73 °FPassing clouds.7 mph94%29.95 "HgN/A
3:30 AM73 °FPassing clouds.7 mph94%29.95 "HgN/A
3:00 AM73 °FPassing clouds.7 mph94%29.95 "HgN/A
2:30 AM73 °FPassing clouds.7 mph100%29.98 "HgN/A
2:00 AM73 °FPassing clouds.8 mph100%29.98 "HgN/A
1:30 AM73 °FPassing clouds.8 mph100%29.98 "HgN/A
1:00 AM73 °FPassing clouds.8 mph100%29.98 "HgN/A
12:30 AM73 °FPassing clouds.6 mph100%30.01 "HgN/A
12:00 AM73 °FPassing clouds.7 mph100%30.01 "HgN/A
11:30 PM
Sat, Aug 29
73 °FPassing clouds.7 mph100%30.01 "HgN/A
11:00 PM73 °FPassing clouds.6 mph100%30.01 "HgN/A
10:30 PM73 °FPassing clouds.6 mph100%30.01 "HgN/A
10:00 PM75 °FPassing clouds.6 mph94%30.01 "HgN/A
9:00 PM75 °FPassing clouds.6 mph94%30.01 "HgN/A
8:30 PM75 °FPassing clouds.7 mph94%29.98 "HgN/A
8:00 PM75 °FPassing clouds.6 mph94%29.98 "HgN/A
7:30 PM75 °FPassing clouds.7 mph94%29.98 "HgN/A
7:00 PM75 °FPassing clouds.8 mph94%29.98 "HgN/A
6:30 PM77 °FPassing clouds.8 mph89%29.95 "HgN/A
6:00 PM77 °FPassing clouds.9 mph89%29.95 "HgN/A
5:30 PM79 °FPassing clouds.12 mph84%29.95 "HgN/A
5:00 PM79 °FPassing clouds.12 mph84%29.95 "HgN/A
4:30 PM79 °FScattered clouds.10 mph84%29.95 "HgN/A
4:00 PM81 °FScattered clouds.13 mph74%29.95 "HgN/A
3:30 PM82 °FScattered clouds.12 mph74%29.95 "HgN/A
3:00 PM82 °FScattered clouds.12 mph74%29.95 "HgN/A
2:30 PM81 °FScattered clouds.13 mph79%29.95 "HgN/A
2:00 PM82 °FScattered clouds.15 mph70%29.95 "HgN/A
1:30 PM82 °FScattered clouds.15 mph74%29.98 "HgN/A
1:00 PM82 °FPassing clouds.14 mph70%30.01 "HgN/A
12:30 PM82 °FPassing clouds.14 mph74%30.01 "HgN/A
12:00 PM82 °FPassing clouds.14 mph70%30.04 "HgN/A
Weather by CustomWeather, © 2015

See weather overviewHow to use our weather pages